• In Germany
  • List of Countries
  • For 7 days
  • Water Temperature
  • Satellite Maps
  • Weather Map
  • Weather Widgets
  • user-avatar
    Login

    Hourly Weather Gold Coast

    Today, 26 June, Monday

    Time Temperature Precipitation Wind Pressure Humidity
    00:00 +13°C° 0 mm 3 mps 760 mmHg 92%
    01:00 +12°C° 0 mm 3 mps 760 mmHg 92%
    02:00 +12°C° 0.1 mm 3 mps 760 mmHg 92%
    03:00 +12°C° 0.1 mm 3 mps 760 mmHg 92%
    04:00 +12°C° 0 mm 3 mps 760 mmHg 94%
    05:00 +12°C° 0.1 mm 3 mps 760 mmHg 93%
    06:00 +12°C° 0.1 mm 3 mps 761 mmHg 92%
    07:00 +12°C° 0.1 mm 3 mps 761 mmHg 91%
    08:00 +14°C° 0 mm 3 mps 761 mmHg 82%
    09:00 +18°C° 0 mm 3 mps 761 mmHg 74%
    10:00 +22°C° 0 mm 1 mps 761 mmHg 61%
    11:00 +23°C° 0 mm 2 mps 761 mmHg 58%
    12:00 +23°C° 0 mm 2 mps 761 mmHg 55%
    13:00 +24°C° 0 mm 2 mps 761 mmHg 53%
    14:00 +22°C° 0 mm 3 mps 761 mmHg 60%
    15:00 +21°C° 0 mm 3 mps 761 mmHg 66%
    16:00 +20°C° 0 mm 4 mps 761 mmHg 73%
    17:00 +19°C° 0 mm 3 mps 761 mmHg 78%
    18:00 +17°C° 0 mm 3 mps 762 mmHg 83%
    19:00 +14°C° 0 mm 3 mps 762 mmHg 88%
    20:00 +14°C° 0 mm 3 mps 763 mmHg 88%
    21:00 +13°C° 0 mm 3 mps 763 mmHg 88%
    22:00 +13°C° 0 mm 3 mps 763 mmHg 87%
    23:00 +13°C° 0 mm 3 mps 763 mmHg 88%

    Tomorrow, 27 June, Tuesday

    Time Temperature Precipitation Wind Pressure Humidity
    00:00 +13°C° 0 mm 3 mps 763 mmHg 88%
    01:00 +13°C° 0 mm 3 mps 764 mmHg 88%
    02:00 +13°C° 0 mm 3 mps 763 mmHg 89%
    03:00 +12°C° 0 mm 3 mps 763 mmHg 91%
    04:00 +12°C° 0 mm 3 mps 763 mmHg 92%
    05:00 +12°C° 0 mm 3 mps 764 mmHg 92%
    06:00 +13°C° 0 mm 3 mps 764 mmHg 92%
    07:00 +13°C° 0 mm 4 mps 764 mmHg 92%
    08:00 +15°C° 0 mm 4 mps 765 mmHg 87%
    09:00 +18°C° 0 mm 4 mps 765 mmHg 81%
    10:00 +20°C° 0 mm 4 mps 765 mmHg 76%
    11:00 +20°C° 0.1 mm 4 mps 765 mmHg 74%
    12:00 +21°C° 0.1 mm 4 mps 764 mmHg 72%
    13:00 +21°C° 0.1 mm 3 mps 764 mmHg 70%
    14:00 +20°C° 0.1 mm 3 mps 764 mmHg 73%
    15:00 +20°C° 0.1 mm 3 mps 763 mmHg 77%
    16:00 +19°C° 0.1 mm 3 mps 763 mmHg 80%
    17:00 +18°C° 0 mm 3 mps 764 mmHg 84%
    18:00 +16°C° 0 mm 3 mps 764 mmHg 88%
    19:00 +14°C° 0 mm 3 mps 764 mmHg 92%
    20:00 +15°C° 0 mm 2 mps 764 mmHg 92%
    21:00 +15°C° 0 mm 2 mps 765 mmHg 92%
    22:00 +15°C° 0 mm 2 mps 765 mmHg 91%
    23:00 +15°C° 0 mm 2 mps 765 mmHg 91%

    Day after tomorrow, 28 June, Wednesday

    Time Temperature Precipitation Wind Pressure Humidity
    00:00 +15°C° 0 mm 2 mps 764 mmHg 91%
    01:00 +16°C° 0 mm 1 mps 764 mmHg 90%
    02:00 +15°C° 0 mm 1 mps 764 mmHg 92%
    03:00 +14°C° 0 mm 1 mps 763 mmHg 93%
    04:00 +13°C° 0 mm 1 mps 763 mmHg 94%
    05:00 +13°C° 0 mm 1 mps 764 mmHg 94%
    06:00 +13°C° 0 mm 1 mps 764 mmHg 95%
    07:00 +13°C° 0 mm 1 mps 764 mmHg 95%
    08:00 +16°C° 0 mm 1 mps 765 mmHg 88%
    09:00 +19°C° 0 mm 1 mps 765 mmHg 82%
    10:00 +22°C° 0 mm 1 mps 765 mmHg 75%
    11:00 +21°C° 0.1 mm 2 mps 764 mmHg 74%
    12:00 +23°C° 0.1 mm 2 mps 764 mmHg 73%
    13:00 +22°C° 0.1 mm 3 mps 763 mmHg 71%
    14:00 +22°C° 0.1 mm 3 mps 763 mmHg 75%
    15:00 +21°C° 0.1 mm 4 mps 762 mmHg 78%
    16:00 +20°C° 0.1 mm 4 mps 762 mmHg 81%
    17:00 +19°C° 0 mm 4 mps 763 mmHg 85%
    18:00 +18°C° 0 mm 4 mps 763 mmHg 88%
    19:00 +17°C° 0 mm 4 mps 763 mmHg 92%
    20:00 +17°C° 0 mm 4 mps 763 mmHg 92%
    21:00 +17°C° 0 mm 4 mps 764 mmHg 92%
    22:00 +15°C° 0 mm 4 mps 764 mmHg 92%
    23:00 +15°C° 0 mm 4 mps 763 mmHg 92%

    29 June, Thursday

    Time Temperature Precipitation Wind Pressure Humidity
    00:00 +15°C° 0 mm 4 mps 763 mmHg 92%
    01:00 +15°C° 0 mm 4 mps 763 mmHg 93%
    02:00 +15°C° 0 mm 4 mps 762 mmHg 93%
    03:00 +14°C° 0 mm 4 mps 762 mmHg 94%
    04:00 +14°C° 0 mm 4 mps 762 mmHg 94%
    05:00 +14°C° 0 mm 4 mps 762 mmHg 93%
    06:00 +14°C° 0 mm 4 mps 762 mmHg 93%
    07:00 +14°C° 0 mm 4 mps 762 mmHg 92%
    08:00 +17°C° 0 mm 4 mps 762 mmHg 86%
    09:00 +19°C° 0 mm 4 mps 762 mmHg 79%
    10:00 +21°C° 0 mm 5 mps 762 mmHg 72%
    11:00 +22°C° 0 mm 5 mps 761 mmHg 69%
    12:00 +23°C° 0 mm 5 mps 760 mmHg 66%
    13:00 +25°C° 0 mm 5 mps 760 mmHg 63%
    14:00 +23°C° 0.1 mm 5 mps 760 mmHg 68%
    15:00 +23°C° 0.1 mm 4 mps 759 mmHg 73%
    16:00 +22°C° 0.1 mm 4 mps 759 mmHg 78%
    17:00 +21°C° 0.5 mm 4 mps 760 mmHg 82%
    18:00 +19°C° 0.5 mm 4 mps 760 mmHg 87%
    19:00 +18°C° 0.5 mm 4 mps 761 mmHg 91%
    20:00 +18°C° 1 mm 4 mps 761 mmHg 92%
    21:00 +17°C° 1 mm 4 mps 761 mmHg 92%
    22:00 +17°C° 1 mm 4 mps 761 mmHg 93%
    23:00 +17°C° 0.2 mm 4 mps 761 mmHg 93%

    30 June, Friday

    Time Temperature Precipitation Wind Pressure Humidity
    00:00 +15°C° 0.2 mm 4 mps 761 mmHg 93%
    01:00 +15°C° 0.2 mm 4 mps 761 mmHg 93%
    02:00 +15°C° 0.3 mm 4 mps 761 mmHg 93%
    03:00 +14°C° 0.3 mm 4 mps 761 mmHg 94%
    04:00 +14°C° 0.3 mm 4 mps 762 mmHg 94%
    05:00 +14°C° 0.2 mm 4 mps 762 mmHg 93%
    06:00 +14°C° 0.2 mm 4 mps 763 mmHg 93%
    07:00 +14°C° 0.2 mm 4 mps 763 mmHg 92%
    08:00 +14°C° 0 mm 5 mps 763 mmHg 89%
    09:00 +15°C° 0 mm 6 mps 764 mmHg 86%
    10:00 +15°C° 0 mm 7 mps 764 mmHg 82%
    11:00 +15°C° 0 mm 7 mps 763 mmHg 78%
    12:00 +16°C° 0 mm 7 mps 763 mmHg 73%
    13:00 +16°C° 0 mm 7 mps 763 mmHg 68%
    14:00 +16°C° 0 mm 6 mps 763 mmHg 68%
    15:00 +15°C° 0 mm 6 mps 763 mmHg 69%
    16:00 +15°C° 0 mm 6 mps 763 mmHg 69%
    17:00 +14°C° 0 mm 6 mps 764 mmHg 73%
    18:00 +12°C° 0 mm 7 mps 764 mmHg 77%
    19:00 +11°C° 0 mm 7 mps 765 mmHg 81%
    20:00 +11°C° 0 mm 7 mps 765 mmHg 82%
    21:00 +11°C° 0 mm 7 mps 766 mmHg 84%
    22:00 +11°C° 0 mm 7 mps 766 mmHg 85%
    23:00 +10°C° 0 mm 7 mps 766 mmHg 85%

    1 July, Saturday

    Time Temperature Precipitation Wind Pressure Humidity
    00:00 +10°C° 0 mm 7 mps 766 mmHg 84%
    01:00 +9°C° 0 mm 7 mps 766 mmHg 84%
    02:00 +9°C° 0 mm 7 mps 766 mmHg 83%
    03:00 +8°C° 0 mm 7 mps 766 mmHg 82%
    04:00 +8°C° 0 mm 7 mps 766 mmHg 81%
    05:00 +8°C° 0.1 mm 7 mps 766 mmHg 81%
    06:00 +8°C° 0.1 mm 7 mps 767 mmHg 81%
    07:00 +8°C° 0.1 mm 7 mps 767 mmHg 82%
    08:00 +10°C° 0.1 mm 7 mps 767 mmHg 78%
    09:00 +11°C° 0.1 mm 7 mps 767 mmHg 75%
    10:00 +14°C° 0.1 mm 7 mps 767 mmHg 71%
    11:00 +15°C° 0.1 mm 7 mps 767 mmHg 70%
    12:00 +16°C° 0.1 mm 7 mps 766 mmHg 68%
    13:00 +17°C° 0.1 mm 7 mps 766 mmHg 67%
    14:00 +17°C° 0.1 mm 7 mps 766 mmHg 70%
    15:00 +16°C° 0.1 mm 7 mps 766 mmHg 72%
    16:00 +16°C° 0.1 mm 7 mps 766 mmHg 75%
    17:00 +15°C° 0.1 mm 6 mps 766 mmHg 80%
    18:00 +13°C° 0.1 mm 6 mps 766 mmHg 84%
    19:00 +11°C° 0.1 mm 6 mps 767 mmHg 89%
    20:00 +11°C° 0.1 mm 6 mps 767 mmHg 90%
    21:00 +10°C° 0.1 mm 6 mps 767 mmHg 90%
    22:00 +10°C° 0.1 mm 5 mps 767 mmHg 91%
    23:00 +10°C° 0.1 mm 5 mps 767 mmHg 91%
    Show more